{"data":{"norad_id":56122,"intl_designator":"2023-046AF","name":"STARLINK-6094","alt_names":[],"object_type":"PAYLOAD","status":"ACTIVE","operator":null,"country":"US","launch_date":"2023-03-29","launch_site_code":"AFETR","launch_vehicle":null,"mission":null,"orbit_class":"UNKNOWN","rcs_meters":null,"size_class":null,"mass_kg":null,"dimensions":null,"purposes":["comms"],"wikipedia_slug":null,"has_3d_model":false,"image_url":null,"decayed_at":null,"tle_current":{"epoch":"2026-05-24T21:33:50.992704Z","epoch_age_seconds":87106,"freshness":"FRESH","line1":"1 56122U 23046AF  26144.89850686  .00000249  00000+0  18578-4 0  9995","line2":"2 56122  43.0057  88.0063 0001581 284.7903  75.2773 15.27576391173727","mean_motion":15.27576391,"eccentricity":0.0001581,"inclination_deg":43.0057,"raan_deg":88.0063,"arg_perigee_deg":284.7903,"mean_anomaly_deg":75.2773,"bstar":1.8578e-5,"rev_number":17372,"period_min":94.266971425064,"perigee_km":481.97514747494,"apogee_km":484.14465793558,"semimajor_km":6861.1969027053,"source":"CELESTRAK","updated_at":"2026-05-25T13:38:17.958715Z"}}}